Flag for Germany Weather past 2 weeks in Mülheim / Ruhr, North Rhine-Westphalia, Germany

Now
59 °F

Partly sunny.


Feels Like: 57 °F
Forecast: 55 / 67 °F
Wind: 12 mph from South

Location: Duesseldorf

Current Time: May 3, 2015 at 10:56:56 AM

Latest Report: May 3, 2015 at 10:20 AM


Visibility: N/A

Pressure: 29.65 "Hg

Humidity: 72%

Dew point: 50 °F

Location of Mülheim / RuhrLocation

Historic Weather in Mülheim / Ruhr — Graph

°F

Mülheim / Ruhr temperature yesterday

Maximum temperature yesterday: 61 °F (at 5:20 PM)
Minimum temperature yesterday: 37 °F (at 6:20 AM)
Average temperature yesterday: 51 °F

Past Weeks' High & Low Weather Summary

 TemperatureHumidityPressure
High70 °F (Apr 21, 3:50 PM)100% (Apr 23, 6:20 AM)30.45 "Hg (Apr 23, 6:20 AM)
Low32 °F (Apr 28, 6:20 AM)23% (Apr 21, 3:20 PM)29.62 "Hg (Apr 27, 2:20 AM)
Average51 °F66%30.01 "Hg
* Reported Apr 18 9:20 AM — May 3 9:50 AM, Mülheim / Ruhr, Weather by CustomWeather, © 2015

Note: Actual official high and low records may vary slightly from our data, if they occured in-between our weather recording intervals... More about our weather records

Advertising

Mülheim / Ruhr weather history for previous 24 hours

 ConditionsComfort  
Time TempWeatherWind HumidityBarometerVisibility
9:50 AM
Sun, May 3
59 °FPartly sunny.15 mph68%29.65 "HgN/A
9:20 AM59 °FSunny.10 mph72%29.68 "Hg10 mi
8:50 AM57 °FSunny.13 mph72%29.65 "Hg10 mi
8:20 AM55 °FSunny.15 mph72%29.65 "Hg10 mi
7:50 AM55 °FSunny.10 mph72%29.68 "Hg10 mi
7:20 AM54 °FSunny.10 mph77%29.68 "Hg10 mi
6:50 AM54 °FClear.10 mph72%29.68 "Hg10 mi
6:20 AM54 °FClear.10 mph72%29.68 "Hg10 mi
5:50 AM50 °FClear.12 mph82%29.68 "Hg10 mi
5:20 AM48 °FClear.5 mph82%29.71 "Hg10 mi
4:50 AM50 °FClear.6 mph76%29.71 "Hg10 mi
4:20 AM48 °FClear.6 mph82%29.71 "Hg10 mi
3:50 AM46 °FClear.8 mph82%29.71 "Hg10 mi
3:20 AM48 °FClear.5 mph76%29.71 "Hg10 mi
2:50 AM50 °FClear.5 mph71%29.74 "Hg10 mi
2:20 AM50 °FClear.6 mph67%29.74 "Hg10 mi
1:50 AM48 °FClear.6 mph71%29.74 "Hg10 mi
1:20 AM50 °FClear.7 mph67%29.77 "Hg10 mi
12:50 AM50 °FClear.7 mph62%29.77 "Hg10 mi
12:20 AM52 °FClear.7 mph58%29.77 "Hg10 mi
11:50 PM
Sat, May 2
55 °FClear.8 mph51%29.80 "Hg10 mi
11:20 PM55 °FClear.9 mph51%29.80 "Hg10 mi
10:50 PM54 °FClear.6 mph54%29.80 "Hg10 mi
10:20 PM55 °FClear.6 mph47%29.80 "Hg10 mi
9:50 PM55 °FSunny.6 mph47%29.80 "Hg10 mi
9:20 PM57 °FSunny.6 mph41%29.80 "Hg10 mi
8:50 PM57 °FSunny.7 mph41%29.83 "Hg10 mi
8:20 PM57 °FSunny.6 mph44%29.83 "Hg10 mi
7:50 PM59 °FSunny.5 mph45%29.83 "Hg10 mi
7:20 PM59 °FSunny.6 mph39%29.83 "Hg10 mi
6:50 PM59 °FSunny.7 mph36%29.83 "Hg10 mi
6:20 PM59 °FPassing clouds.5 mph36%29.83 "HgN/A
5:50 PM61 °FPassing clouds.5 mph34%29.83 "HgN/A
5:20 PM61 °FSunny.1 mph34%29.83 "Hg10 mi
4:50 PM59 °FSunny.1 mph39%29.86 "Hg10 mi
4:20 PM59 °FSunny.3 mph39%29.86 "Hg10 mi
3:50 PM59 °FSunny.5 mph36%29.86 "Hg10 mi
3:20 PM59 °FSunny.3 mph36%29.89 "Hg10 mi
2:50 PM59 °FSunny.1 mph39%29.89 "Hg10 mi
2:20 PM59 °FSunny.3 mph39%29.89 "Hg10 mi
1:50 PM59 °FSunny.1 mph42%29.89 "Hg10 mi
1:20 PM57 °FSunny.1 mph44%29.89 "Hg10 mi
12:50 PM57 °FSunny.5 mph44%29.89 "Hg10 mi
12:20 PM57 °FPartly sunny.3 mph48%29.89 "HgN/A
11:50 AM57 °FPartly sunny.5 mph51%29.89 "HgN/A
11:20 AM55 °FScattered clouds.2 mph59%29.89 "HgN/A
10:50 AM54 °FPassing clouds.2 mph58%29.89 "HgN/A
10:20 AM54 °FPassing clouds.2 mph58%29.89 "HgN/A
Weather by CustomWeather, © 2015

See weather overviewHow to use our weather pages